STARLINK-32866 (62858 NORAD) Tracking and Keplerian Element Data

This shows tracking and keplerian element data for the satellite.

Feedback or suggestion? Click here.




ElementValue
Catalog62858
NameSTARLINK-32866
Epoch Orbit4957
Epoch Day353.15513975
Epoch Year2025
RAAN143.4224
Inclination53.1587
Eccentricity9.55E-05
Argument of Perigee79.9305
Mean Anonmoly280.1804
Mean Motion15.3020743
Decay Rate0.00020878
L11 62858U 25022E 25353.15513975 .00020878 00000+0 71490-3 0 9992
L22 62858 53.1587 143.4224 0000955 79.9305 280.1804 15.30207430 49575



Live tracking and technical data element details for STARLINK-32866 (NORAD 62858). STARLINK-32866 can be tracked NOW for your location showing map with azimuth and elevation plus other details from your city location.







IsCatalogInMostPopularTable: catalog: 62858, numindb: 2
Update: records affected: 1



GetName: 62858 STARLINK-32866

Hit Count: updated at: Tue, 10 Feb 2026 02:24:57 GMT